Home > Weather > Pärnu > Past weeks

Flag for Estonia Past Weather in Pärnu, Estonia — Yesterday and Last 2 Weeks

Now
60 °F

Fog.


Feels Like: 60 °F
Forecast: 62 / 83 °F
Wind: No wind

Location: Pjarnu

Current Time: Jun 25, 2016 at 2:50:17 AM

Latest Report: Jun 25, 2016 at 2:00 AM


Visibility: 1 mi

Pressure: 30.05 "Hg

Humidity: 94%

Dew Point: 58 °F

Location of PärnuLocation

Past Weather in Pärnu — Graph

°F

Pärnu Temperature Yesterday

Maximum temperature yesterday: 76 °F (at 2:00 PM)
Minimum temperature yesterday: 57 °F (at 4:00 AM)
Average temperature yesterday: 66 °F

High & Low Weather Summary for the Past Weeks

 TemperatureHumidityPressure
High76 °F (Jun 24, 2:00 PM)97% (Jun 23, 2:00 AM)30.32 "Hg (Jun 23, 2:00 AM)
Low37 °F (Jun 10, 2:00 AM)32% (Jun 14, 7:00 PM)29.29 "Hg (Jun 18, 7:00 AM)
Average58 °F79%29.87 "Hg
* Reported Jun 10 1:00 AM — Jun 25 1:00 AM, Pärnu, Weather by CustomWeather, © 2016

Note: Actual official high and low records may vary slightly from our data, if they occured in-between our weather recording intervals... More about our weather records

Advertising

Pärnu Weather History for the Previous 24 Hours

Scroll right to see more
 ConditionsComfort  
Time TempWeatherWind HumidityBarometerVisibility
1:00 AM
Sat, Jun 25
63 °FFog.1 mph94%30.05 "Hg4 mi
12:00 AM64 °FPassing clouds.1 mph91%30.06 "Hg6 mi
11:00 PM
Fri, Jun 24
67 °FOvercast.2 mph86%30.06 "Hg9 mi
10:00 PM68 °FOvercast.2 mph82%30.06 "Hg12 mi
9:00 PM69 °FOvercast.1 mph82%30.07 "Hg14 mi
8:00 PM72 °FOvercast.5 mph68%30.09 "Hg22 mi
7:00 PM74 °FPartly sunny.5 mph63%30.08 "Hg28 mi
6:00 PM74 °FPartly sunny.7 mph66%30.08 "Hg22 mi
5:00 PM74 °FPartly sunny.8 mph66%30.09 "Hg28 mi
4:00 PM73 °FSunny.8 mph67%30.09 "Hg15 mi
3:00 PM74 °FOvercast.7 mph70%30.11 "Hg22 mi
2:00 PM76 °FScattered clouds.5 mph62%30.12 "Hg22 mi
1:00 PM71 °FPartly sunny.3 mph78%30.14 "Hg22 mi
12:00 PM64 °FOvercast.2 mph89%30.17 "Hg12 mi
11:00 AM64 °FOvercast.1 mph90%30.19 "Hg9 mi
10:00 AM63 °FLight rain. Partly sunny.2 mph93%30.20 "Hg6 mi
9:00 AM62 °FSprinkles. Low clouds.5 mph93%30.20 "Hg7 mi
8:00 AM63 °FFog.2 mph94%30.19 "Hg5 mi
7:00 AM62 °FFog.2 mph96%30.21 "Hg4 mi
6:00 AM59 °FFog.1 mph96%30.21 "Hg2 mi
5:00 AM58 °FFog.1 mph96%30.21 "Hg2 mi
4:00 AM57 °FFog.1 mph95%30.20 "Hg3 mi
3:00 AM59 °FFog.1 mph95%30.20 "Hg4 mi
2:00 AM59 °FFog.1 mph94%30.20 "Hg4 mi
Weather by CustomWeather, © 2016

See weather overviewHow to use our weather pages